[[{"header":{"parameterUnit":"m.s-1","parameterCategory":1,"la1":30.2991,"la2":30.254,"lo1":-89.0895,"lo2":-89.0444,"dy":0.0017,"dx":0.0017,"nx":28,"ny":28,"refTime":"2025-04-15T09:00:00:Z","depth":0,"parameterNumber":2,"parameterNumberName":"U-component_of_WINDS"},"data":[0,0,0,0,0,0,0,0,0,0,0,0,0,0,0,0,0,0,0,0,0,0,0,0,0,0,0,0,0,0,0,0,0,0,0,0,0,0,0,0,0,0,0,0,0,0,0,0,0,0,0,0,0,0,0,0,0,0,-2.4276,-2.4276,0,-2.4221,-2.4221,-2.422,-2.4076,-2.4073,-2.407,-2.4067,-2.4015,-2.4016,-2.4018,0,0,0,0,0,0,0,0,0,0,0,0,0,-2.4262,-2.4263,-2.4276,-2.4276,-2.4275,-2.4221,-2.4221,-2.422,-2.4077,-2.4073,-2.4069,-2.4065,-2.4014,-2.4016,-2.4018,0,0,0,0,0,0,0,0,0,0,0,0,0,-2.4244,-2.4263,-2.4276,-2.4197,-2.4189,-2.4222,-2.4221,-2.422,-2.4077,-2.4073,-2.4068,-2.4064,-2.4014,-2.4016,-2.4018,-2.4125,0,0,-2.4025,-2.4026,0,0,0,0,0,0,0,0,-2.4245,-2.4245,-2.4209,-2.4202,-2.4194,-2.4151,-2.4196,-2.4188,-2.4078,-2.412,-2.4067,-2.4061,-2.4064,-2.4062,-2.4062,-2.4122,-2.412,-2.4025,-2.4027,-2.4028,-2.4028,0,0,0,0,0,0,0,-2.4246,-2.4246,-2.4255,-2.4209,-2.42,-2.4165,-2.4158,-2.4194,-2.4119,-2.4116,-2.4105,-2.4101,-2.4059,-2.406,-2.406,-2.4119,-2.4025,-2.4027,-2.4029,-2.4029,-2.4267,-2.4271,0,0,0,0,0,0,-2.4259,-2.4248,-2.4256,-2.4253,-2.4208,-2.4169,-2.4161,-2.4169,-2.4118,-2.4106,-2.4105,-2.4094,-2.4059,-2.4057,-2.4057,-2.418,-2.4028,-2.403,-2.4031,-2.4262,-2.4268,-2.4273,0,0,0,0,0,0,-2.4259,-2.4261,-2.4259,-2.4248,-2.4245,-2.4175,-2.4185,-2.4171,-2.4171,-2.4109,-2.4096,-2.4119,-2.4055,-2.4054,-2.4109,-2.4176,-2.4031,-2.4033,-2.4256,-2.4264,-2.427,-2.4426,0,0,0,0,0,0,-2.4259,-2.4262,-2.43,-2.425,-2.4246,-2.4311,-2.4189,-2.4173,-2.4175,-2.4161,-2.4119,-2.4108,-2.4051,-2.4107,-2.4112,-2.4177,-2.4034,-2.425,-2.4259,-2.4268,-2.4415,-2.4438,-2.4458,0,0,0,0,0,-2.4259,-2.4347,-2.4303,-2.4305,-2.4292,-2.4315,-2.4313,-2.4244,-2.4181,-2.422,-2.4181,-2.4109,-2.4168,-2.4114,-2.4118,-2.4185,-2.4245,-2.4257,-2.4267,-2.4405,-2.4433,-2.4457,0,0,0,0,0,0,-2.4408,-2.4338,-2.4289,-2.4363,-2.4346,-2.429,-2.4337,-2.4276,-2.4277,-2.4264,-2.418,-2.4172,-2.4239,-2.4217,-2.4158,-2.4286,-2.4195,-2.4208,-2.4298,-2.4324,-2.4346,-2.435,-2.4036,0,0,0,0,0,-2.4449,-2.4471,-2.441,-2.4481,-2.4475,-2.4408,-2.4415,-2.4364,-2.4343,-2.4336,-2.43,-2.4284,-2.4298,-2.431,-2.432,-2.441,-2.44,-2.4459,-2.448,-2.4498,-2.451,-2.4559,-2.4584,-2.431,-2.431,-2.4309,0,0,-2.4535,-2.45,-2.4519,-2.451,-2.4491,-2.4518,-2.4403,-2.4436,-2.4455,-2.4341,-2.4391,-2.4364,-2.4341,-2.4415,-2.4446,-2.4398,-2.4584,-2.4512,-2.4527,-2.4529,-2.4573,-2.4599,-2.4622,-2.4317,-2.4316,-2.4315,0,0,-2.4705,-2.468,-2.4737,-2.472,-2.4692,-2.4647,-2.4661,-2.4615,-2.4593,-2.4641,-2.4557,-2.458,-2.4606,-2.4594,-2.4591,-2.4758,-2.4694,-2.4764,-2.4877,-2.4925,-2.4947,-2.4966,-2.5027,-2.505,-2.4776,-2.4777,-2.4777,0,-2.4815,-2.4851,-2.4774,-2.4813,-2.4812,-2.4709,-2.4768,-2.4755,-2.4733,-2.4736,-2.4683,-2.4715,-2.4692,-2.4763,-2.4804,-2.4804,-2.4819,-2.4769,-2.495,-2.4968,-2.4984,-2.5042,-2.5065,-2.4785,-2.4784,-2.4784,-2.4783,0,-2.4989,-2.5015,-2.5065,-2.5045,-2.505,-2.5099,-2.5031,-2.5046,-2.4995,-2.4956,-2.5008,-2.4977,-2.498,-2.4993,-2.4943,-2.5057,-2.5029,-2.4964,-2.4871,-2.5021,-2.5074,-2.5095,-2.4798,-2.4795,-2.4792,-2.479,0,0,-2.5251,-2.5188,-2.5208,-2.5199,-2.5161,-2.5181,-2.5226,-2.5227,-2.5242,-2.5231,-2.5268,-2.5293,-2.5234,-2.5231,-2.5179,-2.5221,-2.5358,-2.5151,-2.5149,-2.5192,-2.5484,-2.5534,-2.5561,-2.5315,-2.5319,-2.5322,-2.5487,0,-2.5412,-2.5484,-2.5417,-2.5502,-2.5527,-2.543,-2.5469,-2.5452,-2.5418,-2.5435,-2.5397,-2.5417,-2.5336,-2.5334,-2.5371,-2.5334,-2.5416,-2.5321,-2.535,-2.5352,-2.536,-2.5588,-2.564,-2.5797,-2.5507,-2.551,-2.5513,0,-2.561,-2.5607,-2.5695,-2.5653,-2.566,-2.5697,-2.5694,-2.5711,-2.569,-2.5662,-2.566,-2.5597,-2.564,-2.5549,-2.5608,-2.5545,-2.5554,-2.5537,-2.5542,-2.5543,-2.5443,-2.5597,-2.5845,-2.587,-2.5544,-2.5542,-2.5539,0,-2.5794,-2.5812,-2.5867,-2.5862,-2.5814,-2.5842,-2.5824,-2.5798,-2.5804,-2.5802,-2.5805,-2.5809,-2.5812,-2.5817,-2.5758,-2.5697,-2.5826,-2.5729,-2.5806,-2.5808,-2.5839,-2.5838,-2.6094,-2.5842,-2.5842,-2.5841,-2.5841,0,-2.5982,-2.604,-2.595,-2.5984,-2.6047,-2.597,-2.6035,-2.6007,-2.5985,-2.6014,-2.593,-2.596,-2.5879,-2.59,-2.5854,-2.5912,-2.5913,-2.5893,-2.5881,-2.5902,-2.5904,-2.5907,-2.5895,-2.5848,-2.5846,-2.5845,-2.5844,0,-2.6199,-2.614,-2.6194,-2.6144,-2.6134,-2.6183,-2.6141,-2.6171,-2.6132,-2.6169,-2.6174,-2.6113,-2.6133,-2.6074,-2.6086,-2.6055,-2.614,-2.6108,-2.6147,-2.6138,-2.6219,-2.6213,-2.6486,-2.6519,-2.6246,-2.6248,-2.6251,0,-2.6323,-2.6365,-2.632,-2.6333,-2.6319,-2.634,-2.6346,-2.6273,-2.6283,-2.6263,-2.6297,-2.631,-2.6317,-2.6356,-2.6313,-2.6323,-2.6292,-2.6387,-2.6293,-2.6314,-2.6296,-2.6295,-2.6299,-2.6408,-2.6411,-2.6414,-2.6416,0,-2.655,-2.6519,-2.653,-2.6532,-2.654,-2.6538,-2.653,-2.6546,-2.6468,-2.6484,-2.6504,-2.6509,-2.6521,-2.6537,-2.6537,-2.652,-2.6457,-2.6446,-2.6464,-2.6487,-2.6508,-2.6499,-2.6202,-2.644,-2.6438,-2.6436,-2.6435,-2.6434,-2.6725,-2.6759,-2.6733,-2.6748,-2.6735,-2.673,-2.6757,-2.6721,-2.6735,-2.6739,-2.6696,-2.6725,-2.6705,-2.6698,-2.6688,-2.6712,-2.6668,-2.6695,-2.6701,-2.671,-2.6724,-2.6503,-2.6711,-2.671,-2.671,-2.6709,-2.6708,0,-2.6949,-2.6928,-2.6943,-2.6935,-2.6948,-2.6885,-2.6874,-2.6889,-2.6916,-2.6901,-2.691,-2.6935,-2.695,-2.6909,-2.6918,-2.6945,-2.6917,-2.6951,-2.6949,-2.6946,-2.6761,-2.6745,-2.6974,-2.6974,-2.6974,-2.6974,-2.6974,-2.6973,-2.7068,-2.7122,-2.7089,-2.7137,-2.7115,-2.7143,-2.7142,-2.7138,-2.7127,-2.7157,-2.7169,-2.7142,-2.7118,-2.7125,-2.7137,-2.7125,-2.7133,-2.7178,-2.7156,-2.6985,-2.6959,-2.6934,-2.6918,-2.718,-2.718,-2.7339,-2.734,-2.7341]},{"header":{"parameterUnit":"m.s-1","parameterCategory":1,"la1":30.2991,"la2":30.254,"lo1":-89.0895,"lo2":-89.0444,"dy":0.0017,"dx":0.0017,"nx":28,"ny":28,"refTime":"2025-04-15T09:00:00:Z","depth":0,"parameterNumber":3,"parameterNumberName":"V-component_of_WINDS"},"data":[0,0,0,0,0,0,0,0,0,0,0,0,0,0,0,0,0,0,0,0,0,0,0,0,0,0,0,0,0,0,0,0,0,0,0,0,0,0,0,0,0,0,0,0,0,0,0,0,0,0,0,0,0,0,0,0,0,0,0.7327,0.7327,0,0.7285,0.7285,0.7284,0.729,0.729,0.7291,0.7292,0.7244,0.7243,0.7241,0,0,0,0,0,0,0,0,0,0,0,0,0,0.7411,0.7409,0.7327,0.7327,0.7326,0.7285,0.7285,0.7284,0.7289,0.729,0.7291,0.7292,0.7245,0.7243,0.7241,0,0,0,0,0,0,0,0,0,0,0,0,0,0.7372,0.7408,0.7328,0.7324,0.7324,0.7285,0.7285,0.7284,0.7289,0.729,0.7291,0.7292,0.7246,0.7243,0.724,0.7201,0,0,0.7232,0.723,0,0,0,0,0,0,0,0,0.7374,0.7369,0.7325,0.7324,0.7324,0.7294,0.7297,0.7256,0.7289,0.7302,0.7292,0.7293,0.726,0.7256,0.7245,0.7199,0.7197,0.7231,0.723,0.7228,0.7227,0,0,0,0,0,0,0,0.7377,0.7371,0.7311,0.7325,0.7324,0.7324,0.732,0.7289,0.7275,0.7301,0.7301,0.7296,0.7259,0.7248,0.7244,0.7197,0.7231,0.7229,0.7227,0.7226,0.7116,0.7115,0,0,0,0,0,0,0.7381,0.7373,0.7312,0.7309,0.7352,0.7322,0.7317,0.7302,0.7276,0.7273,0.7296,0.7297,0.7253,0.7248,0.7243,0.7195,0.7228,0.7226,0.7224,0.7117,0.7116,0.7115,0,0,0,0,0,0,0.7382,0.7375,0.7314,0.7341,0.7333,0.7319,0.7303,0.7301,0.7289,0.7272,0.7269,0.7287,0.7253,0.7247,0.7212,0.7193,0.7224,0.7222,0.7119,0.7117,0.7115,0.71,0,0,0,0,0,0,0.7385,0.7376,0.7361,0.7341,0.7332,0.7284,0.7302,0.7299,0.7285,0.7286,0.7263,0.726,0.7254,0.7216,0.7209,0.719,0.7219,0.712,0.7118,0.7116,0.7102,0.7097,0.7094,0,0,0,0,0,0.7388,0.7358,0.7361,0.7353,0.7314,0.7283,0.7278,0.7272,0.7284,0.7268,0.7257,0.726,0.7197,0.7213,0.7205,0.7184,0.7121,0.7119,0.7116,0.7103,0.7098,0.7094,0,0,0,0,0,0,0.7375,0.7355,0.7358,0.7321,0.7304,0.7284,0.7265,0.7267,0.7246,0.7248,0.7241,0.7236,0.72,0.7189,0.7207,0.7146,0.7161,0.7156,0.7154,0.7149,0.7145,0.7147,0.7217,0,0,0,0,0,0.7368,0.7346,0.7329,0.7298,0.729,0.7279,0.7265,0.7263,0.7244,0.7237,0.7223,0.7204,0.718,0.7164,0.7141,0.7101,0.7095,0.7083,0.7079,0.7076,0.7072,0.7049,0.7043,0.7106,0.7106,0.7106,0,0,0.7353,0.7339,0.7325,0.7295,0.7282,0.7258,0.7273,0.7247,0.7229,0.7233,0.7199,0.7188,0.7167,0.7129,0.7112,0.7119,0.7054,0.7073,0.7071,0.7068,0.7046,0.704,0.7035,0.7104,0.7104,0.7105,0,0,0.7313,0.7301,0.7273,0.726,0.724,0.7234,0.7227,0.7208,0.7201,0.7168,0.717,0.7149,0.7107,0.7092,0.7079,0.7035,0.7036,0.7027,0.7006,0.6984,0.6979,0.6975,0.6958,0.6952,0.7024,0.7024,0.7024,0,0.7296,0.7261,0.7259,0.7233,0.7219,0.7224,0.7195,0.7182,0.7155,0.7145,0.7154,0.7103,0.7089,0.7047,0.7037,0.7026,0.7018,0.7029,0.6981,0.6976,0.6972,0.6956,0.695,0.7022,0.7023,0.7023,0.7023,0,0.7241,0.7217,0.7197,0.7172,0.7157,0.713,0.7122,0.7106,0.7106,0.7098,0.7064,0.7048,0.7021,0.7012,0.701,0.697,0.6975,0.6983,0.6997,0.6965,0.695,0.6943,0.7021,0.7021,0.7022,0.7022,0,0,0.7189,0.7165,0.7158,0.7147,0.7126,0.7107,0.708,0.7056,0.7042,0.7024,0.7,0.6966,0.6973,0.6958,0.6956,0.6937,0.6902,0.6946,0.6946,0.6937,0.6855,0.6848,0.6841,0.6904,0.6903,0.6902,0.6857,0,0.7146,0.71,0.7097,0.7054,0.7032,0.7037,0.7013,0.6998,0.699,0.6969,0.6961,0.6936,0.6948,0.6939,0.6921,0.691,0.6885,0.6913,0.688,0.6879,0.6884,0.6833,0.6826,0.6784,0.6851,0.685,0.6849,0,0.7089,0.707,0.7026,0.7009,0.6999,0.6978,0.6956,0.6936,0.6919,0.6915,0.6899,0.6899,0.6871,0.6889,0.6849,0.6868,0.6855,0.6848,0.6846,0.6841,0.6861,0.6825,0.677,0.6763,0.684,0.684,0.6841,0,0.7054,0.7018,0.6986,0.6977,0.6957,0.6942,0.6933,0.6916,0.6902,0.6883,0.6873,0.685,0.6837,0.6819,0.6813,0.6827,0.6773,0.679,0.6768,0.6768,0.6754,0.6754,0.6694,0.6749,0.6749,0.6749,0.6749,0,0.7005,0.6976,0.6971,0.6951,0.692,0.6918,0.6887,0.6878,0.6864,0.6842,0.6846,0.6825,0.6819,0.6797,0.6792,0.676,0.6754,0.6749,0.6748,0.6747,0.6748,0.6737,0.6739,0.6747,0.6748,0.6748,0.6748,0,0.6959,0.6954,0.692,0.6904,0.69,0.6877,0.6864,0.6845,0.6839,0.6811,0.6804,0.6794,0.6769,0.6762,0.6731,0.6728,0.6689,0.6691,0.6695,0.6694,0.6671,0.6673,0.66,0.659,0.6653,0.6652,0.6652,0,0.6927,0.6906,0.6888,0.6875,0.6865,0.6843,0.6829,0.6827,0.6811,0.6791,0.6774,0.6749,0.6729,0.6688,0.6677,0.6654,0.6654,0.6631,0.665,0.6651,0.6652,0.6652,0.665,0.6626,0.6625,0.6625,0.6624,0,0.687,0.6869,0.6849,0.6828,0.6812,0.6795,0.6779,0.6767,0.6763,0.6746,0.672,0.6705,0.6675,0.6649,0.6626,0.6616,0.6618,0.6619,0.6612,0.661,0.6613,0.6609,0.6683,0.6619,0.662,0.662,0.6621,0.6621,0.6828,0.681,0.6795,0.6773,0.6761,0.6747,0.6728,0.672,0.67,0.6675,0.6675,0.6647,0.6631,0.66,0.6589,0.6566,0.6573,0.6563,0.6561,0.6558,0.6555,0.6618,0.6562,0.6562,0.6562,0.6562,0.6563,0,0.677,0.6762,0.6741,0.672,0.6702,0.6709,0.6692,0.6676,0.6652,0.6638,0.6618,0.6589,0.6566,0.6554,0.653,0.6514,0.6515,0.6508,0.6508,0.6505,0.6551,0.6559,0.6508,0.6508,0.6508,0.6508,0.6508,0.6508,0.6738,0.6706,0.6704,0.6667,0.6658,0.6632,0.6621,0.6608,0.6596,0.6564,0.6545,0.6538,0.6524,0.65,0.6478,0.6475,0.6465,0.6457,0.6455,0.6497,0.6502,0.6507,0.6514,0.6455,0.6455,0.6411,0.641,0.641]}]]